TimePST,TemperatureF,Dew PointF,Humidity,Sea Level PressureIn,VisibilityMPH,Wind Direction,Wind SpeedMPH,Gust SpeedMPH,PrecipitationIn,Events,Conditions,WindDirDegrees,DateUTC
12:51 AM,62.1,57.0,84,30.17,6.0,North,5.8,-,N/A,,Overcast,350,2012-12-05 08:51:00
1:36 AM,60.8,57.2,88,30.15,4.0,NNW,4.6,-,N/A,,Overcast,330,2012-12-05 09:36:00
1:51 AM,61.0,55.9,83,30.15,4.0,Calm,Calm,-,N/A,,Overcast,0,2012-12-05 09:51:00
2:35 AM,60.8,55.4,82,30.14,5.0,NW,5.8,-,N/A,,Overcast,310,2012-12-05 10:35:00
2:51 AM,60.1,55.9,86,30.14,4.0,NW,3.5,-,N/A,,Overcast,310,2012-12-05 10:51:00
3:51 AM,59.0,55.0,87,30.13,3.0,NW,5.8,-,N/A,,Overcast,320,2012-12-05 11:51:00
4:51 AM,60.1,55.9,86,30.12,4.0,Variable,4.6,-,N/A,,Overcast,0,2012-12-05 12:51:00
6:51 AM,59.0,55.9,90,30.13,3.0,Calm,Calm,-,N/A,,Overcast,0,2012-12-05 14:51:00
7:38 AM,59.0,55.4,88,30.15,2.5,Calm,Calm,-,N/A,,Overcast,0,2012-12-05 15:38:00
7:51 AM,60.1,55.0,83,30.15,2.5,Calm,Calm,-,N/A,,Overcast,0,2012-12-05 15:51:00
8:32 AM,60.8,53.6,77,30.16,3.0,East,3.5,-,N/A,,Overcast,80,2012-12-05 16:32:00
8:51 AM,60.1,55.0,83,30.16,3.0,Calm,Calm,-,N/A,,Overcast,0,2012-12-05 16:51:00
9:08 AM,60.8,53.6,77,30.16,3.0,NNE,4.6,-,N/A,,Overcast,20,2012-12-05 17:08:00
9:51 AM,62.1,54.0,75,30.15,4.0,Calm,Calm,-,N/A,,Haze,0,2012-12-05 17:51:00
10:02 AM,62.6,53.6,72,30.14,4.0,Calm,Calm,-,N/A,,Haze,0,2012-12-05 18:02:00
10:51 AM,63.0,55.0,75,30.13,4.0,SSW,5.8,-,N/A,,Haze,210,2012-12-05 18:51:00
11:40 AM,64.4,55.4,73,30.11,4.0,West,10.4,-,N/A,,Haze,280,2012-12-05 19:40:00
11:51 AM,63.0,55.0,75,30.10,4.0,WNW,6.9,-,N/A,,Haze,300,2012-12-05 19:51:00
12:51 PM,64.0,55.0,73,30.08,6.0,WNW,8.1,-,N/A,,Haze,290,2012-12-05 20:51:00
1:51 PM,64.0,54.0,70,30.06,10.0,WNW,5.8,-,N/A,,Mostly Cloudy,300,2012-12-05 21:51:00
2:51 PM,63.0,55.0,75,30.04,10.0,WNW,5.8,-,N/A,,Mostly Cloudy,300,2012-12-05 22:51:00
3:51 PM,62.1,55.0,78,30.04,10.0,WNW,4.6,-,N/A,,Mostly Cloudy,300,2012-12-05 23:51:00
4:51 PM,61.0,55.0,81,30.05,10.0,WNW,5.8,-,N/A,,Mostly Cloudy,290,2012-12-06 00:51:00
5:18 PM,60.8,55.4,82,30.05,10.0,WNW,5.8,-,N/A,,Mostly Cloudy,300,2012-12-06 01:18:00
5:51 PM,60.1,55.0,83,30.06,10.0,WNW,5.8,-,N/A,,Mostly Cloudy,300,2012-12-06 01:51:00
6:24 PM,60.8,55.4,82,30.05,10.0,Calm,Calm,-,N/A,,Mostly Cloudy,0,2012-12-06 02:24:00
6:51 PM,60.1,55.0,83,30.06,10.0,Calm,Calm,-,N/A,,Scattered Clouds,0,2012-12-06 02:51:00
7:51 PM,60.1,55.0,83,30.06,10.0,Calm,Calm,-,N/A,,Scattered Clouds,0,2012-12-06 03:51:00
8:15 PM,60.8,53.6,77,30.06,10.0,Calm,Calm,-,N/A,,Mostly Cloudy,0,2012-12-06 04:15:00
8:51 PM,61.0,55.0,81,30.06,10.0,East,3.5,-,N/A,,Mostly Cloudy,100,2012-12-06 04:51:00
9:51 PM,61.0,55.0,81,30.07,10.0,Calm,Calm,-,N/A,,Mostly Cloudy,0,2012-12-06 05:51:00
10:24 PM,60.8,53.6,77,30.07,10.0,West,3.5,-,N/A,,Mostly Cloudy,270,2012-12-06 06:24:00
10:51 PM,61.0,54.0,78,30.07,10.0,Calm,Calm,-,N/A,,Mostly Cloudy,0,2012-12-06 06:51:00
11:51 PM,61.0,54.0,78,30.05,10.0,Calm,Calm,-,N/A,,Overcast,0,2012-12-06 07:51:00